Location: Unspecified
(41.1637°N, 24.2901°E)
Time: 17:22:18
(UTC+01:00)

ISS - Pass Details

Date: 18 February 2024
Orbit: 414 x 422 km, 51.6° (Epoch: 04 March)

Event Time Altitude Azimuth Distance (km) Brightness Sun altitude
Exits shadow 05:13:26 15° 241° (WSW) 1,218 -1.9 -12.1°
Maximum altitude 05:16:05 74° 325° (NW) 443 -3.8 -11.6°
Drops below altitude 10° 05:19:30 10° 51° (NE) 1,515 -0.2 -11.0°
Sets 05:21:35 0° 54° (NE) 2,373 0.9 -10.6°
